Showing default

OPS 8464 (TRANSIT 5B-7), 1514

Orbit data source: Space-Track

OPS 8464 (TRANSIT 5B-7), 1514 is a payload satellite owned by USN BuWeps (US) in LEO that was launched on Fri, 13 Aug 1965 UTC via a THOR ABLESTAR launch vehicle from the Air Force Western Test Range (AFWTR). Payload-class satellites include a variety of spacecraft equipped with specific instruments for various scientific and technological missions. These include communications satellites like Starlink; space stations such as the ISS; scientific satellites like the Hubble; Earth observation satellites from companies like Planet Labs, Umbra, and HawkEye 360; GPS; miniature CubeSats for education and research; and military/defense satellites.

Loading next visibility...
Identifier
1514, 1965-065F
Orbit
LEO
Country
Flag of USUS
Related business
Manufacturer
NAFI
Mission
Spacecraft
Bus & Motor
TRANSIT 5, Unknown motor
Mass
~54 kg wet, ~54 kg dry
Launch date (UTC)
1965-08-13 (60 years ago)
Launch vehicle
THOR ABLESTAR
Launch site
Air Force Western Test Range (AFWTR)
Object type
Payload
Rocket body
Debris
Shape & HBR
Unknown
Radar Cross Section
Large (>1 m²)

Expand to show TLE details & history
Last TLE update: 7 hours ago

TLE from 7 hours ago
0 OPS 8464 (TRANSIT 5B-7)
1 01514U 65065F   25296.55558721  .00000127  00000-0  22898-3 0  9997
2 01514  89.9830 228.1306 0071909 106.5484  66.5261 13.35322427929688
Epoch: 2025-10-23T13:20Z
TLE epoch observation values (Epoch: 2025-10-23T13:20:02.734Z)
Latitude
6.08893°
Longitude
175.90425°
Altitude
1,107.931 km
Speed
7.309 km/s
True Right ascension
03h 12m 30s
True Declination
6° 03' 16"
Sunlit
Object was in full shadow at epoch
Visualization orbit readout
Latitude
Unknown
Longitude
Unknown
Altitude
Unknown
Speed
Unknown
Apparent Right ascension
Unknown
Apparent Declination
Unknown
Sunlit
N/A
Visualization observer readout
Local Sidereal Time
15:23:33
Azimuth
Unknown
Elevation
Unknown
Doppler factor
Unknown
Orbital elements
Apogee altitude
1,177.771 km
Perigee altitude
1,069.88 km
Semi-major axis
7,501.962 km
Eccentricity
0.00719
Inclination
89.983°
RAAN
228.1306°
Arg. of periapsis
106.5484°
True anomaly
67.28462°
Mean anomaly
66.5261°
Eccentric anomaly
66.90509°
Mean motion
3.34026 °/min
Orbital period
107.78 mins
BSTAR
0.00022898
Loading maneuver chart data...
Computing Atmospheric mass density...
Loading historical data...
Loading historical data...
Loading historical data...
Loading historical data...
Loading historical data...
Loading historical data...
Loading historical data...

Documentation

Showing up to 5 results
|